默认 日期 大小 文件数 浏览量 最新下载 xml
124-磁力链接相关资源由用户搜索指令自动获取,结果来源于网络,本站不存储任何资料,亦不承担任何责任,请于24小时内删除,搜索到7959个磁力,显示前4000条数据,用时4ms。
    {"IPX-124.mp4": 1952581629, "日本A ...
创建时间: 2019-01-19 14:18:09 大小:2.22 GB 文件数量:7 热度:84 最近下载:2025-08-05 13:40:04
    {"01.JPG": 157111, "02.JPG": 179079, "03.JPG": 72893, "04.JPG": 92466, "05.JPG": 101058, "06.JPG": 103310, "07.JPG": 167442, "08.JPG": 92442, "09.JPG": 86754, "22P2P.url": 174, "SexInSex! Board.url": 197, "[email protected]": 249, "askforfair@SexinSex. ...
创建时间: 2019-01-19 14:45:46 大小:703.5 MB 文件数量:31 热度:20 最近下载:2025-08-04 03:02:24
    {"Artwork": {"Extras": {"image_01.jpg": 5018415, "image_02.jpg": 4876620, "image_03.jpg": 4806888, "image_04.jpg": 6154627}, "cd.jpg": 615312, "back.jpg": 733012, "full.jpg": 3493520, "front.jpg": 1864148, "inside.jpg": 677512, "inside+.jpg": 1262029, " ...
创建时间: 2019-01-19 14:53:33 大小:252.98 MB 文件数量:24 热度:6 最近下载:2024-11-05 09:41:02
    {"Torrent downloaded from Divxhunt.me.txt": 32, "Malwarebytes Anti-Exploit Premium 1.12.1.124 + Keygen.exe": 1030836, "Malwarebytes Anti-Exploit Premium 1.12.1.124 + Keygen.nfo": 540}
创建时间: 2019-01-19 15:07:57 大小:1007.23 KB 文件数量:3 热度:7 最近下载:2025-01-20 08:43:05
    {"crack": {"run_7825c.exe": 78506}, "ReadMe.nfo": 1112, "www.limetorrents.com.jpg": 78572, "Torrent downloaded from Divxhunt.me.txt": 44, "Malwarebytes Anti-Exploit Premium 1.12.1.124 + Keygen.exe": 15393194}
创建时间: 2019-01-19 15:08:56 大小:14.83 MB 文件数量:5 热度:6 最近下载:2025-03-25 10:46:03
    {"Torrent downloaded from Divxhunt.me.txt": 32, "Malwarebytes Anti-Exploit Premium 1.12.1.124 + Keygen.exe": 1030838, "Malwarebytes Anti-Exploit Premium 1.12.1.124 + Keygen.nfo": 540}
创建时间: 2019-01-19 16:16:25 大小:1007.24 KB 文件数量:3 热度:6 最近下载:2025-01-22 21:08:03
    {"Uno Para Todas - Temporada 1 [HDTV][Cap.124][Español Castellano][www.newpct.com].avi": 237822448}
创建时间: 2019-01-19 18:01:25 大小:226.81 MB 文件数量:1 热度:6 最近下载:2025-01-29 19:17:01
    {"key.rar": 105, "Keygen.rar": 355253, "gu5setup.exe": 1085997, "Visit SnowFiles.com.url": 110, "Visit CracksMind.com.url": 113, "Downloaded from CracksMind.Com.txt": 2178, "Visit TutsGalaxy.com for tutorials & free courses.url": 113}
创建时间: 2019-01-19 20:26:21 大小:1.38 MB 文件数量:7 热度:7 最近下载:2025-03-26 02:58:02
    {"NU.15.0.0.124.and.Portable": {"NorUt15": {"NorUt15.exe": 19430488}, "Free Most Latest Software.url": 177, "Norton Utilities 15 Portable.exe": 112263168}, "Free Most Latest Software.url": 177}
创建时间: 2019-01-19 21:19:44 大小:125.59 MB 文件数量:4 热度:18 最近下载:2025-08-01 18:39:02
    ... イト.jpg": 1966849}, "090812-124-carib-low.wmv": 879380262, "090812 ...
创建时间: 2019-01-19 21:22:50 大小:2.53 GB 文件数量:20 热度:30 最近下载:2025-09-21 02:38:03
    {"A.jpg": 121442, "B.jpg": 625703, " (1).jpg": 63449, " (2).jpg": 61088, " (3).jpg": 63602, " (4).jpg": 47345, " (5).jpg": 59895, " (6).jpg": 53353, " (7).jpg": 80715, " (8).jpg": 59224, " (9).jpg": 65236, " (10).jpg": 69686, "bbi124.avi": ...
创建时间: 2019-01-19 21:40:31 大小:1.28 GB 文件数量:20 热度:39 最近下载:2025-08-07 20:18:05
    {"Torrent downloaded from Divxhunt.me.txt": 32, "Malwarebytes Anti-Exploit Premium 1.12.1.124 + Keygen.exe": 1030838, "Malwarebytes Anti-Exploit Premium 1.12.1.124 + Keygen.nfo": 540}
创建时间: 2019-01-20 05:10:53 大小:1007.24 KB 文件数量:3 热度:6 最近下载:2025-01-21 11:31:02
    ... 论坛.url": 220}, "SUPD-124.HD.mp4": 5463226864, "金沙 ...
创建时间: 2019-01-20 05:12:49 大小:5.09 GB 文件数量:16 热度:24 最近下载:2025-08-13 01:41:01
    {"crack": {"run_6ce47.exe": 339254}, "autorun.url": 1268, "Torrent downloaded from Kickass.to.txt": 84, "Glary Utilities Pro 6.102.0.124 + Keygen [CracksMind].exe": 26065866, "Glary Utilities Pro 6.102.0.124 + Keygen [CracksMind].nfo": 920}
创建时间: 2019-01-20 05:36:04 大小:25.18 MB 文件数量:5 热度:7 最近下载:2025-02-01 17:02:04
    {"KAT.txt": 224, "Linux User & Developer - Issue 124, 2013.zip": 19910988}
创建时间: 2019-01-20 06:52:54 大小:18.99 MB 文件数量:2 热度:10 最近下载:2025-01-26 19:26:15
    ... 【SEX8.CC】BT-124-SD.avi": 1096570765, "72CB2864E6C265D753A79D2A1A2ED91D2630905B.torrent ... 【SEX8.CC】BT-124-SD (1).jpg": 143204, " ... 【SEX8.CC】BT-124-SD (2).jpg": 2111965, " ... 【SEX8.CC】BT-124-SD (3).jpg": 136508, " ... 【SEX8.CC】BT-124-SD (4).jpg": 161092, " ...
创建时间: 2019-01-20 09:00:03 大小:1.03 GB 文件数量:21 热度:24 最近下载:2025-10-10 14:32:02
    ... , "?dioguitar23?18P2P.url": 214, "090812-124-carib-whole2048.wmv": 879380262, "090812 ... -124-carib-whole_hd1.wmv": 1836116258, "090812-124-carib-whole_psp.mp4 ...
创建时间: 2019-01-20 09:59:18 大小:3.57 GB 文件数量:11 热度:43 最近下载:2025-09-09 01:51:02
    {"cmv-124.mp4": 5496527068, "安卓二维码.jpg": 7050, "[6sht.me]-最新地址获取.txt": 240}
创建时间: 2019-01-20 15:26:53 大小:5.12 GB 文件数量:3 热度:164 最近下载:2025-10-07 02:28:02
    {"Bs.VC.2.77.124_[RH].rar": 11819788}
创建时间: 2019-01-20 15:27:07 大小:11.27 MB 文件数量:1 热度:7 最近下载:2025-01-30 19:59:04
    ... .png": 221191}, "UFC.Fight.Night.124.480p.x264-mSD.mkv": 1377214272 ... , "UFC.Fight.Night.124.480p.x264-mSD.nfo": 1191 ...
创建时间: 2019-01-20 19:15:25 大小:1.28 GB 文件数量:7 热度:18 最近下载:2025-03-11 06:14:02